Radiation Dose at Monitoring Post of Fukushima Daini Nuclear Power Station
Date,Time,MP-1(microSv/h),MP-2(microSv/h),MP-3(microSv/h),MP-4(microSv/h),MP-5(microSv/h),MP-6(microSv/h),MP-7(microSv/h),Wind Direction,Wind Velocity(m/s),Rain
2016/12/01,00:00,0.398,0.232,0.399,0.369,0.347,0.193,0.168,south-southwest,4.2,No
2016/12/01,00:10,0.396,0.234,0.397,0.370,0.346,0.195,0.168,south-southwest,4.7,No
2016/12/01,00:20,0.395,0.234,0.399,0.368,0.344,0.195,0.167,south-southwest,4.3,No
2016/12/01,00:30,0.396,0.233,0.397,0.369,0.347,0.195,0.168,south-southwest,3.8,No
2016/12/01,00:40,0.397,0.232,0.400,0.369,0.343,0.195,0.168,south-southwest,3.8,No
2016/12/01,00:50,0.396,0.234,0.400,0.368,0.346,0.194,0.168,south-southwest,3.1,No
2016/12/01,01:00,0.397,0.233,0.397,0.370,0.346,0.195,0.168,south-southwest,2.8,No
2016/12/01,01:10,0.397,0.232,0.400,0.367,0.344,0.195,0.167,south-southwest,2.3,No
2016/12/01,01:20,0.396,0.233,0.400,0.368,0.345,0.195,0.168,south-southwest,2.4,No
2016/12/01,01:30,0.398,0.232,0.399,0.371,0.346,0.194,0.168,southwest,3.3,No
2016/12/01,01:40,0.396,0.232,0.399,0.368,0.345,0.195,0.168,southwest,3.7,No
2016/12/01,01:50,0.395,0.232,0.398,0.369,0.347,0.194,0.166,south-southwest,2.9,No
2016/12/01,02:00,0.398,0.233,0.398,0.368,0.344,0.195,0.167,south-southwest,2.5,No
2016/12/01,02:10,0.395,0.233,0.400,0.368,0.347,0.196,0.168,south-southwest,2.4,No
2016/12/01,02:20,0.396,0.233,0.396,0.370,0.345,0.194,0.168,south,1.9,No
2016/12/01,02:30,0.397,0.233,0.399,0.369,0.343,0.193,0.167,south-southeast,1.2,No
2016/12/01,02:40,0.396,0.233,0.398,0.368,0.347,0.194,0.168,south-southeast,0.8,No
2016/12/01,02:50,0.397,0.232,0.398,0.371,0.344,0.195,0.167,-,CALM,No
2016/12/01,03:00,0.399,0.232,0.401,0.367,0.344,0.195,0.168,north-northwest,0.8,No
2016/12/01,03:10,0.397,0.234,0.398,0.368,0.346,0.195,0.168,north-northwest,0.7,No
2016/12/01,03:20,0.396,0.233,0.398,0.370,0.344,0.194,0.167,northeast,1.0,No
2016/12/01,03:30,0.397,0.233,0.399,0.368,0.346,0.194,0.167,-,CALM,No
2016/12/01,03:40,0.397,0.234,0.397,0.369,0.346,0.195,0.168,south-southeast,0.7,No
2016/12/01,03:50,0.397,0.234,0.399,0.369,0.344,0.195,0.168,south-southeast,1.6,No
2016/12/01,04:00,0.397,0.232,0.399,0.368,0.346,0.194,0.167,southeast,1.3,No
2016/12/01,04:10,0.395,0.234,0.397,0.369,0.346,0.195,0.167,east-southeast,0.5,No
2016/12/01,04:20,0.399,0.233,0.400,0.369,0.343,0.193,0.167,south,1.3,No
2016/12/01,04:30,0.395,0.233,0.399,0.368,0.347,0.194,0.166,south,1.4,No
2016/12/01,04:40,0.395,0.234,0.399,0.370,0.345,0.195,0.169,south,1.6,Yes
2016/12/01,04:50,0.400,0.235,0.400,0.369,0.344,0.195,0.168,south-southwest,1.5,Yes
2016/12/01,05:00,0.397,0.233,0.399,0.369,0.349,0.195,0.169,south-southwest,1.7,Yes
2016/12/01,05:10,0.397,0.233,0.398,0.371,0.347,0.197,0.170,south-southwest,2.1,Yes
2016/12/01,05:20,0.397,0.236,0.401,0.371,0.348,0.196,0.169,south-southwest,1.8,Yes
2016/12/01,05:30,0.398,0.237,0.399,0.371,0.347,0.197,0.170,south-southwest,1.2,Yes
2016/12/01,05:40,0.400,0.236,0.403,0.372,0.346,0.200,0.171,south-southwest,1.9,Yes
2016/12/01,05:50,0.399,0.237,0.401,0.369,0.347,0.199,0.172,southwest,2.2,Yes
2016/12/01,06:00,0.399,0.238,0.399,0.370,0.347,0.199,0.172,south,1.1,Yes
2016/12/01,06:10,0.398,0.237,0.400,0.370,0.346,0.201,0.172,south-southwest,0.9,Yes
2016/12/01,06:20,0.399,0.238,0.399,0.368,0.349,0.201,0.173,southwest,1.2,Yes
2016/12/01,06:30,0.398,0.239,0.396,0.369,0.348,0.201,0.174,west-southwest,1.6,Yes
2016/12/01,06:40,0.400,0.238,0.397,0.371,0.347,0.203,0.174,south-southeast,1.7,Yes
2016/12/01,06:50,0.398,0.238,0.398,0.366,0.349,0.201,0.175,southeast,1.7,Yes
2016/12/01,07:00,0.396,0.239,0.396,0.369,0.347,0.202,0.173,southeast,1.2,Yes
2016/12/01,07:10,0.399,0.239,0.397,0.369,0.348,0.200,0.173,-,CALM,Yes
2016/12/01,07:20,0.397,0.237,0.397,0.366,0.348,0.201,0.172,east,0.5,Yes
2016/12/01,07:30,0.395,0.237,0.394,0.368,0.347,0.200,0.172,northeast,1.4,Yes
2016/12/01,07:40,0.397,0.238,0.395,0.366,0.347,0.200,0.172,northeast,0.9,Yes
2016/12/01,07:50,0.397,0.236,0.394,0.365,0.348,0.199,0.172,north-northeast,1.4,Yes
2016/12/01,08:00,0.397,0.238,0.393,0.367,0.345,0.198,0.171,north,1.9,Yes
2016/12/01,08:10,0.397,0.238,0.397,0.365,0.348,0.199,0.172,north,2.1,Yes
2016/12/01,08:20,0.395,0.238,0.394,0.365,0.347,0.200,0.173,north,2.5,Yes
2016/12/01,08:30,0.397,0.237,0.393,0.365,0.347,0.199,0.173,north-northeast,3.3,Yes
2016/12/01,08:40,0.397,0.239,0.395,0.365,0.349,0.200,0.172,north-northwest,4.2,Yes
2016/12/01,08:50,0.395,0.238,0.391,0.365,0.346,0.198,0.171,north,3.4,Yes
2016/12/01,09:00,0.397,0.238,0.394,0.364,0.347,0.198,0.170,north,3.0,Yes
2016/12/01,09:10,0.396,0.239,0.395,0.365,0.348,0.200,0.171,north,2.8,Yes
2016/12/01,09:20,0.394,0.238,0.391,0.365,0.347,0.199,0.172,north,2.5,Yes
2016/12/01,09:30,0.397,0.238,0.394,0.363,0.347,0.198,0.172,north,3.1,Yes
2016/12/01,09:40,0.395,0.238,0.390,0.365,0.347,0.198,0.170,north,3.7,Yes
2016/12/01,09:50,0.394,0.237,0.392,0.365,0.345,0.197,0.169,north,3.6,Yes
2016/12/01,10:00,0.394,0.236,0.392,0.361,0.348,0.196,0.171,north,4.2,Yes
2016/12/01,10:10,0.393,0.237,0.392,0.364,0.346,-,0.172,north,4.0,Yes
2016/12/01,10:20,0.393,0.239,0.392,0.363,0.346,-,0.171,north,3.7,Yes
2016/12/01,10:30,0.394,0.237,0.392,0.363,0.350,-,0.171,north,4.1,Yes
2016/12/01,10:40,0.395,0.239,0.391,0.363,0.346,-,0.171,north-northwest,5.0,Yes
2016/12/01,10:50,0.393,0.237,0.391,0.362,0.344,-,0.170,north-northeast,6.5,Yes
2016/12/01,11:00,0.393,0.236,0.388,0.361,0.346,-,0.170,northeast,0.6,Yes
2016/12/01,11:10,0.391,0.236,0.389,0.358,0.341,-,0.171,north-northeast,3.8,Yes
2016/12/01,11:20,0.391,0.237,0.389,0.356,0.345,-,0.171,east-northeast,2.0,Yes
2016/12/01,11:30,0.391,0.237,0.387,0.359,0.348,-,0.171,northeast,1.9,Yes
2016/12/01,11:40,0.391,0.237,0.391,0.358,0.346,-,0.170,north-northeast,2.2,Yes
2016/12/01,11:50,0.392,0.238,0.389,0.360,0.348,-,0.171,north,1.6,Yes
2016/12/01,12:00,0.390,0.235,0.389,0.359,0.346,-,0.169,northeast,0.8,Yes
2016/12/01,12:10,0.390,0.235,0.390,0.359,0.345,-,0.170,east,0.9,Yes
2016/12/01,12:20,0.391,0.236,0.388,0.362,0.346,-,0.170,east-southeast,1.3,Yes
2016/12/01,12:30,0.389,0.235,0.390,0.361,0.345,-,0.171,south,2.2,Yes
2016/12/01,12:40,0.390,0.236,0.388,0.360,0.346,-,0.169,south-southeast,2.6,Yes
2016/12/01,12:50,0.389,0.236,0.387,0.359,0.343,-,0.167,southeast,2.0,Yes
2016/12/01,13:00,0.389,0.235,0.389,0.359,0.344,-,0.168,north,2.5,Yes
2016/12/01,13:10,0.392,0.236,0.387,0.362,0.348,-,0.171,north-northeast,2.3,Yes
2016/12/01,13:20,0.390,0.235,0.391,0.359,0.345,-,0.170,north-northeast,3.1,Yes
2016/12/01,13:30,0.393,0.235,0.387,0.360,0.346,-,0.170,north,3.2,Yes
2016/12/01,13:40,0.390,0.235,0.389,0.360,0.345,-,0.168,north,4.0,No
2016/12/01,13:50,0.387,0.233,0.386,0.359,0.344,-,0.168,north,4.1,Yes
2016/12/01,14:00,0.388,0.234,0.387,0.361,0.346,-,0.168,north,3.7,No
2016/12/01,14:10,0.388,0.233,0.389,0.358,0.343,-,0.166,north,4.1,No
2016/12/01,14:20,0.387,0.231,0.384,0.359,0.345,-,0.165,north,4.2,No
2016/12/01,14:30,0.389,0.230,0.388,0.356,0.342,-,0.164,north,3.8,No
2016/12/01,14:40,0.385,0.230,0.386,0.358,0.342,-,0.164,north,2.9,No
2016/12/01,14:50,0.387,0.228,0.387,0.357,0.341,-,0.163,north,2.8,No
2016/12/01,15:00,0.386,0.229,0.384,0.355,0.340,-,0.162,north,3.1,No
2016/12/01,15:10,0.385,0.228,0.384,0.357,0.341,0.183,0.162,north,2.9,No
2016/12/01,15:20,0.386,0.230,0.386,0.355,0.338,0.183,0.161,north-northwest,2.6,No
2016/12/01,15:30,0.385,0.227,0.383,0.355,0.342,0.184,0.162,north-northwest,3.3,No
2016/12/01,15:40,0.385,0.228,0.387,0.356,0.339,0.184,0.161,north,3.7,No
2016/12/01,15:50,0.386,0.228,0.385,0.356,0.339,0.183,0.161,north-northwest,3.9,No
2016/12/01,16:00,0.385,0.228,0.385,0.358,0.339,0.184,0.161,northwest,3.2,No
2016/12/01,16:10,0.386,0.228,0.387,0.355,0.338,0.183,0.161,northwest,3.5,No
2016/12/01,16:20,0.386,0.229,0.386,0.358,0.340,0.183,0.162,west-northwest,3.2,No
2016/12/01,16:30,0.386,0.229,0.387,0.357,0.341,0.185,0.160,west-northwest,2.7,No
2016/12/01,16:40,0.388,0.228,0.386,0.357,0.339,0.184,0.161,northwest,2.9,No
2016/12/01,16:50,0.385,0.229,0.386,0.358,0.339,0.185,0.161,northwest,2.2,No
2016/12/01,17:00,0.384,0.227,0.388,0.356,0.340,0.185,0.162,north-northwest,3.2,No
2016/12/01,17:10,0.387,0.227,0.386,0.357,0.340,0.184,0.161,north-northwest,3.7,No
2016/12/01,17:20,0.385,0.229,0.387,0.357,0.340,0.184,0.161,northwest,2.8,No
2016/12/01,17:30,0.387,0.228,0.387,0.357,0.339,0.184,0.162,north,1.3,No
2016/12/01,17:40,0.387,0.226,0.386,0.358,0.340,0.183,0.161,northwest,1.2,No
2016/12/01,17:50,0.387,0.229,0.386,0.357,0.341,0.184,0.161,northwest,3.3,No
2016/12/01,18:00,0.387,0.228,0.385,0.359,0.341,0.185,0.161,west-northwest,4.2,No
2016/12/01,18:10,0.385,0.227,0.386,0.357,0.340,0.184,0.161,northwest,2.0,No
2016/12/01,18:20,0.385,0.228,0.387,0.356,0.343,0.183,0.160,north-northwest,3.2,No
2016/12/01,18:30,0.388,0.228,0.385,0.358,0.338,0.184,0.160,northwest,2.2,No
2016/12/01,18:40,0.386,0.227,0.388,0.356,0.340,0.184,0.161,west-northwest,2.6,No
2016/12/01,18:50,0.389,0.227,0.386,0.358,0.338,0.184,0.160,north-northwest,2.4,No
2016/12/01,19:00,0.386,0.226,0.386,0.357,0.337,0.184,0.161,west,3.7,No
2016/12/01,19:10,0.386,0.228,0.388,0.357,0.341,0.183,0.161,west-northwest,6.5,No
2016/12/01,19:20,0.387,0.228,0.385,0.358,0.340,0.184,0.160,west-northwest,9.8,No
2016/12/01,19:30,0.387,0.227,0.387,0.356,0.339,0.185,0.162,west,11.2,No
2016/12/01,19:40,0.388,0.226,0.388,0.358,0.340,0.184,0.162,west,14.7,No
2016/12/01,19:50,0.387,0.227,0.387,0.358,0.339,0.185,0.162,west,12.9,No
2016/12/01,20:00,0.385,0.229,0.388,0.357,0.341,0.185,0.161,west-northwest,11.0,No
2016/12/01,20:10,0.388,0.228,0.385,0.358,0.340,0.186,0.161,west-northwest,10.3,No
2016/12/01,20:20,0.387,0.227,0.390,0.356,0.340,0.187,0.161,west-northwest,9.7,No
2016/12/01,20:30,0.388,0.228,0.387,0.358,0.340,0.184,0.161,west-northwest,11.2,No
2016/12/01,20:40,0.388,0.228,0.391,0.358,0.340,0.186,0.161,west-northwest,9.7,No
2016/12/01,20:50,0.389,0.228,0.387,0.359,0.340,0.184,0.162,west,9.4,No
2016/12/01,21:00,0.389,0.229,0.387,0.360,0.342,0.185,0.162,west-southwest,5.9,No
2016/12/01,21:10,0.387,0.228,0.390,0.359,0.341,0.185,0.161,west-southwest,4.2,No
2016/12/01,21:20,0.388,0.229,0.389,0.361,0.341,0.185,0.162,west,4.5,No
2016/12/01,21:30,0.389,0.230,0.390,0.358,0.340,0.187,0.161,west,6.5,No
2016/12/01,21:40,0.388,0.229,0.388,0.359,0.341,0.186,0.162,west-northwest,7.9,No
2016/12/01,21:50,0.390,0.228,0.388,0.359,0.340,0.187,0.161,west,10.5,No
2016/12/01,22:00,0.389,0.227,0.387,0.359,0.340,0.186,0.162,west,11.9,No
2016/12/01,22:10,0.388,0.228,0.388,0.361,0.342,0.185,0.162,west-northwest,11.5,No
2016/12/01,22:20,0.392,0.229,0.389,0.360,0.341,0.186,0.163,west,15.1,No
2016/12/01,22:30,0.389,0.229,0.386,0.361,0.339,0.186,0.161,west-northwest,13.2,No
2016/12/01,22:40,0.389,0.228,0.390,0.361,0.342,0.187,0.163,west-northwest,12.2,No
2016/12/01,22:50,0.390,0.229,0.391,0.360,0.339,0.186,0.162,west,13.5,No
2016/12/01,23:00,0.390,0.228,0.388,0.363,0.340,0.186,0.163,west,14.1,No
2016/12/01,23:10,0.391,0.229,0.392,0.361,0.343,0.185,0.162,west-northwest,12.1,No
2016/12/01,23:20,0.390,0.229,0.389,0.362,0.341,0.186,0.162,west,13.7,No
2016/12/01,23:30,0.390,0.230,0.391,0.360,0.342,0.188,0.161,west-northwest,12.2,No
2016/12/01,23:40,0.393,0.228,0.392,0.361,0.343,0.187,0.162,west-northwest,10.7,No
2016/12/01,23:50,0.390,0.231,0.391,0.362,0.341,0.187,0.163,west-northwest,13.2,No
